Regional Weather Roundup
Issued by NWS

Home | Current Version | Previous Version | Graphics & Text | Print | Product List | Glossary On
Versions: 1 2 3 4 5 6 7 8 9 10 11 12 13 14 15 16 17 18 19 20 21 22 23 24 25 26 27 28 29 30 31 32 33 34 35 36 37 38 39 40 41 42 43 44 45 46 47 48 49 50
000
ASUS43 KDMX 011407
RWRIA

WEATHER ROUNDUP FOR IOWA
NATIONAL WEATHER SERVICE DES MOINES IA
900 AM CDT MON SEP 01 2014

NOTE: "FAIR" INDICATES FEW OR NO CLOUDS BELOW 12,000 FEET WITH NO
SIGNIFICANT WEATHER AND/OR OBSTRUCTIONS TO VISIBILITY.

* - THESE STATIONS ARE NOT NWS STATIONS...THUS NOT UNDER NWS
QUALITY CONTROL.  THEY ALSO DO NOT REPORT WEATHER SUCH
AS PRECIPITATION OR FOG.

IAZ001>003-012>014-020>022-031>034-043>046-011500-
   NORTHWEST IOWA

CITY           SKY/WX    TMP DP  RH WIND       PRES   REMARKS
CARROLL *      SUNNY     70  64  83 W10       29.77R
CHEROKEE *     MOSUNNY   64  63  94 W6        29.77R
DENISON *      CLOUDY    66  64  94 W8        29.78R
LE MARS *      PTSUNNY   64  63  94 VRB7      29.80R
ORANGE CITY *  MOSUNNY   64  63  94 NW8       29.78R
SHELDON *      SUNNY     64  63  94 W7        29.76S
SIOUX CITY     CLOUDY    65  62  90 W3        29.80R
SPENCER        CLOUDY    65  62  90 W9        29.77R
STORM LAKE *   MOSUNNY   63  63 100 W12G17    29.77R
$$

IAZ055>058-069>071-079>083-090>094-011500-
   SOUTHWEST IOWA

CITY           SKY/WX    TMP DP  RH WIND       PRES   REMARKS
ATLANTIC *     CLOUDY    70  66  88 W12       29.79R
AUDUBON *      MOSUNNY   70  66  88 SW8       29.80R
CLARINDA *     CLOUDY    70  66  88 SW12G18   29.84R
COUNCIL BLFS * SUNNY     68  66  94 NW7       29.81R
CRESTON *      CLOUDY    68  66  94 SW14G23   29.82R
HARLAN  *      PTSUNNY   66  64  94 W9        29.83R
LAMONI         CLOUDY    68  64  87 W15       29.83R
RED OAK *      PTSUNNY   70  66  88 SW14G20   29.81R
SHENANDOAH *   CLOUDY    70  66  88 W9        29.83R
$$

IAZ047>049-059>061-072>074-084-011500-
   CENTRAL IOWA

CITY           SKY/WX    TMP DP  RH WIND       PRES   REMARKS
AMES           SUNNY     70  67  90 SW13      29.75R
ANKENY *       MOSUNNY   72  66  83 SW10G16   29.75S
CHARITON *     CLOUDY    68  64  88 SW10G17   29.81R
DES MOINES     PTSUNNY   71  65  81 SW14      29.76R
GRINNELL*      SUNNY     70  64  83 SW14G22   29.76F
KNOXVILLE *    SUNNY     70  64  83 SW16G22   29.77R
MARSHALLTOWN   CLOUDY    69  66  90 SW14      29.74R
PELLA *        MOSUNNY   72  64  78 W13G18    29.79R
PERRY *        PTSUNNY   70  66  88 W10G16    29.77R
$$

IAZ004>006-015-016-023>025-035-036-011500-
   NORTH CENTRAL IOWA

CITY           SKY/WX    TMP DP  RH WIND       PRES   REMARKS
ALGONA *       MOSUNNY   68  66  94 W7        29.74R
CLARION *      CLOUDY    66  66 100 W7        29.74R
ESTHERVILLE    PTSUNNY   65  63  93 W7        29.74R
FORT DODGE *   CLOUDY    66  64  94 W6        29.75R
MASON CITY     CLOUDY    66  65  96 W10       29.73R
FOREST CITY *  PTSUNNY   68  66  94 W3        29.72S
IOWA FALLS *   CLOUDY    68  64  88 SW12      29.75R
$$

IAZ007>011-017>019-026>030-037>042-050>054-066-011500-
   NORTHEAST IOWA

CITY           SKY/WX    TMP DP  RH WIND       PRES   REMARKS
CEDAR RAPIDS   PTSUNNY   68  66  93 SW9       29.75S
CHARLES CITY * CLOUDY    66  66 100 SW10      29.71S
CLINTON *      CLOUDY    68  64  88 S12       29.77F
DECORAH *      CLOUDY    66  64  94 SW7G13    29.69S
DUBUQUE        PTSUNNY   67  64  90 SW15      29.75S
MONTICELLO *   PTSUNNY   70  66  88 SW9G15    29.75S
OELWEIN *      CLOUDY    66  64  94 SW13G18   29.73S
WATERLOO       CLOUDY    68  65  90 SW15      29.71S
$$

IAZ064-065-067-068-078-011500-
   EAST CENTRAL IOWA

CITY           SKY/WX    TMP DP  RH WIND       PRES   REMARKS
DAVENPORT      PTSUNNY   70  65  84 SW9       29.78R
IOWA CITY      PTSUNNY   70  66  87 SW7       29.77S
MT. PLEASANT * SUNNY     72  64  78 W7        29.79R
MUSCATINE *    SUNNY     70  66  88 S5        29.78R
QUAD CITIES    PTSUNNY   69  65  86 SW5       29.77R
$$

IAZ062-063-075>077-085>089-095>099-011500-
   SOUTHEAST IOWA

CITY           SKY/WX    TMP DP  RH WIND       PRES   REMARKS
BURLINGTON     MOSUNNY   72  71  97 W8        29.79S
FAIRFIELD *    PTSUNNY   70  64  83 W13G18    29.80R
FORT MADISON * MOSUNNY   72  68  88 W9        29.80R
KEOKUK *       SUNNY     72  66  83 W10       29.79S
OSKALOOSA *    CLOUDY    68  64  88 W10       29.80R
CENTERVILLE *  PTSUNNY   68  66  94 SW13G18   29.84R
OTTUMWA        CLOUDY    68  63  84 W8        29.78R
WASHINGTON *   MOSUNNY   72  66  83 W10G16    29.78R
$$

ABBREVIATIONS USED IN REMARKS
   TC - TEMPERATURES IN CELSIUS
  WCI - WIND CHILL INDEX
   HX - HEAT INDEX
  VSB - VISIBILITY
$$




USA.gov is the U.S. government's official web portal to all federal, state and local government web resources and services.